Regional Weather Roundup
Issued by NWS Jackson, KY

Home | Current Version | Previous Version | Graphics & Text | Print | Product List | Glossary On
Versions: 1 2 3 4 5 6 7 8 9 10 11 12 13 14 15 16 17 18 19 20 21 22 23 24 25 26 27 28 29 30 31 32 33 34 35 36 37 38 39 40 41 42 43 44 45 46 47 48 49 50
082
ASUS43 KJKL 260410
RWRJKL

EAST KENTUCKY HOURLY WEATHER ROUNDUP
NATIONAL WEATHER SERVICE JACKSON KY
1200 AM EDT SAT MAY 26 2018

NOTE: "FAIR" INDICATES FEW OR NO CLOUDS BELOW 12,000 FEET WITH
NO SIGNIFICANT WEATHER AND/OR OBSTRUCTIONS TO VISIBILITY.

* THESE REPORTS ARE NOT UNDER NWS QUALITY CONTROL AND MAY NOT
  REPORT WEATHER SUCH AS PRECIPITATION AND FOG.

KYZ079-080-083-085-087-088-110-112-115-119-120-260500
...EASTERN KENTUCKY...

CITY           SKY/WX    TMP DP  RH WIND       PRES   REMARKS
JACKSON          N/A     73  67  81 CALM      29.94F
LONDON           N/A     72  65  78 S3        29.94F
SOMERSET*        N/A     70  66  88 MISG      29.93F
MONTICELLO*      N/A     71  66  84 NE7       29.94F
WILLIAMSBURG*    N/A     68  68 100 CALM      29.95F
MIDDLESBORO*     N/A     71  68  92 CALM      29.97F
HARLAN APT*      N/A     69  65  89 CALM      29.98F
PIKE CO APT*     N/A     68  68 100 SE7       29.96F
MOREHEAD APT*    N/A     70  66  88 S6        29.93F
ASHLAND*         N/A     70  69  97 CALM      29.90S
$$

KYZ035-036-041-042-044-050-067-078-099-260500
...CENTRAL KENTUCKY...

CITY           SKY/WX    TMP DP  RH WIND       PRES   REMARKS
MT STERLING*     N/A     68  66  94 S3        29.92F
FLEMING/MASON*   N/A     72  64  76 CALM      29.91F
DANVILLE*        N/A     68  64  88 CALM      29.93S
LEXINGTON        N/A     73  64  73 S6        29.91F
FRANKFORT        N/A     70  63  78 CALM      29.88F
LOUISVILLE     MOCLDY    79  61  53 CALM      29.87S
LEBANON*         N/A     73  63  68 SE5       29.90S
GLASGOW*         N/A     73  66  80 CALM      29.91S
BOWLING GREEN    N/A     77  70  79 SW6       29.90R
$$

KYZ091>093-OHZ055-061-077-WVZ005-015-034-035-042-260500
...SOUTHERN OHIO/WEST VIRGINIA...

CITY           SKY/WX    TMP DP  RH WIND       PRES   REMARKS
COVINGTON      MOCLDY    69  61  75 S5        29.88S
COLUMBUS         N/A     74  55  51 S3        29.87R
DAYTON           N/A     72  59  63 SW9       29.88S
WILMINGTON       N/A     67  60  78 CALM      29.89S
HUNTINGTON       N/A     72  68  87 CALM      29.91S
CHARLESTON       N/A     72  68  87 CALM      29.92S
PINEVILLE*       N/A     67  66  96 MISG      30.03F
BECKLEY          N/A     69  61  75 SE5       30.02F
BLUEFIELD        N/A     67  61  81 SW6       30.06S
LOGAN CO APT*  MOCLDY    70  68  94 CALM      29.96F
$$

VAZ002-007-008-TNZ017-027-036-066-071-260500
...SOUTHWEST VIRGINIA/EAST TENNESSEE...

CITY           SKY/WX    TMP DP  RH WIND       PRES   REMARKS
WISE*            N/A     70  63  78 S5        30.05F
JONESVILLE*      N/A     66  66 100 CALM      30.01S
ABINGDON*        N/A     68  64  88 CALM      30.03F
BRISTOL          N/A     72  64  76 CALM      30.00F
MORRISTOWN*    PTCLDY    73  68  83 CALM      29.97F
SEVIERVILLE*   PTCLDY    72  66  83 CALM      29.95F
KNOXVILLE        N/A     74  67  78 SW8       29.95S
LAFOLLETTE*    PTCLDY    70  64  83 CALM      29.99F
OAK RIDGE      MOCLDY    75  70  84 W6        29.97F
CROSSVILLE       N/A     68  66  93 CALM      30.00F
NASHVILLE      MOCLDY    75  65  70 SW9       29.92S
$$

...KEY TO REMARKS...
VSB - VISIBILITY IN MILES
WCI - WIND CHILL INDEX
HX  - HEAT INDEX

$$




USA.gov is the U.S. government's official web portal to all federal, state and local government web resources and services.